| time (UTC) | temp F | wind direction | speed knots | gust knots | rain 1hr in | rain 24hr in | rain mn in | humidity % | barometer mb |
| 20260505140519 | 60 | 178 | 7.8 | 19.1 | 0.00 | 0.07 | 0.00 | 65 | 1006.0 |
| 20260505125020 | 55 | 193 | 3.5 | 8.7 | 0.00 | 0.07 | 0.00 | 74 | 1006.1 |
| 20260505124546 | 54 | 182 | 4.3 | 12.2 | 0.00 | 0.07 | 0.00 | 75 | 1006.0 |
| 20260505124023 | 54 | 183 | 7.0 | 12.2 | 0.00 | 0.07 | 0.00 | 77 | 1006.0 |
| 20260505123520 | 52 | 173 | 5.2 | 12.2 | 0.00 | 0.07 | 0.00 | 81 | 1006.1 |
| 20260505123038 | 50 | 151 | 4.3 | 10.4 | 0.00 | 0.07 | 0.00 | 88 | 1006.1 |
| 20260505122518 | 48 | 170 | 1.7 | 3.5 | 0.00 | 0.07 | 0.00 | 92 | 1006.2 |
| 20260505122019 | 47 | 195 | 0.9 | 3.5 | 0.00 | 0.07 | 0.00 | 95 | 1006.1 |
| 20260505121553 | 46 | 186 | 1.7 | 4.3 | 0.00 | 0.07 | 0.00 | 98 | 1006.5 |
| 20260505121016 | 44 | 160 | 1.7 | 4.3 | 0.00 | 0.07 | 0.00 | 98 | 1006.5 |
| 20260505120526 | 43 | 169 | 0.9 | 4.3 | 0.00 | 0.07 | 0.00 | 98 | 1006.5 |
| 20260505120051 | 43 | 164 | 0.9 | 2.6 | 0.00 | 0.07 | 0.00 | 98 | 1006.7 |
| 20260505115513 | 42 | 164 | 0.0 | 2.6 | 0.00 | 0.07 | 0.00 | 98 | 1006.8 |
| 20260505115016 | 42 | 164 | 0.9 | 2.6 | 0.00 | 0.07 | 0.00 | 98 | 1006.8 |
| 20260505114538 | 41 | 164 | 0.0 | 1.7 | 0.00 | 0.07 | 0.00 | 98 | 1006.6 |
| 20260505114014 | 41 | 164 | 0.0 | 1.7 | 0.00 | 0.07 | 0.00 | 98 | 1006.7 |
| 20260505113513 | 40 | 164 | 0.0 | 1.7 | 0.00 | 0.07 | 0.00 | 98 | 1006.7 |
| 20260505113042 | 40 | 160 | 0.0 | 1.7 | 0.00 | 0.07 | 0.00 | 98 | 1006.5 |
| 20260505112513 | 39 | 160 | 0.0 | 1.7 | 0.00 | 0.07 | 0.00 | 98 | 1006.5 |
| 20260505112007 | 39 | 160 | 0.0 | 0.9 | 0.00 | 0.07 | 0.00 | 98 | 1006.8 |
| 20260505111543 | 38 | 160 | 0.0 | 0.9 | 0.00 | 0.07 | 0.00 | 98 | 1007.0 |
| 20260505111016 | 37 | 160 | 0.0 | 0.0 | 0.00 | 0.07 | 0.00 | 98 | 1007.0 |
| 20260505110516 | 37 | 160 | 0.0 | 1.7 | 0.00 | 0.07 | 0.00 | 97 | 1007.2 |
| 20260505102017 | 34 | 160 | 0.0 | 0.0 | 0.00 | 0.07 | 0.00 | 96 | 1006.8 |
| 20260505101549 | 34 | 160 | 0.0 | 0.0 | 0.00 | 0.07 | 0.00 | 96 | 1006.8 |
| 20260505101018 | 34 | 160 | 0.0 | 0.0 | 0.00 | 0.07 | 0.00 | 97 | 1006.9 |
| 20260505100513 | 34 | 160 | 0.0 | 0.0 | 0.00 | 0.07 | 0.00 | 96 | 1006.8 |
| 20260505100026 | 34 | 160 | 0.0 | 0.9 | 0.00 | 0.07 | 0.00 | 96 | 1007.1 |
| 20260505095513 | 34 | 160 | 0.0 | 0.9 | 0.00 | 0.07 | 0.00 | 96 | 1007.0 |
| 20260505095014 | 34 | 160 | 0.0 | 0.9 | 0.00 | 0.07 | 0.00 | 96 | 1007.1 |
| 20260505094526 | 34 | 160 | 0.0 | 0.9 | 0.00 | 0.07 | 0.00 | 96 | 1007.0 |
| 20260505094014 | 34 | 160 | 0.0 | 1.7 | 0.00 | 0.07 | 0.00 | 96 | 1007.2 |
| 20260505093515 | 34 | 160 | 0.0 | 1.7 | 0.00 | 0.07 | 0.00 | 96 | 1007.1 |
| 20260505093040 | 34 | 160 | 0.0 | 0.0 | 0.00 | 0.07 | 0.00 | 96 | 1007.0 |
| 20260505092512 | 34 | 160 | 0.0 | 0.9 | 0.00 | 0.07 | 0.00 | 96 | 1007.0 |
| 20260505092017 | 34 | 160 | 0.0 | 0.9 | 0.00 | 0.07 | 0.00 | 96 | 1007.0 |
| 20260505091539 | 34 | 160 | 0.0 | 0.9 | 0.00 | 0.07 | 0.00 | 96 | 1007.1 |
| 20260505091013 | 34 | 160 | 0.0 | 0.9 | 0.00 | 0.07 | 0.00 | 95 | 1007.0 |
| 20260505090513 | 34 | 160 | 0.0 | 0.9 | 0.00 | 0.07 | 0.00 | 95 | 1007.1 |
| 20260505090045 | 34 | 160 | 0.0 | 0.9 | 0.00 | 0.07 | 0.00 | 95 | 1007.1 |
| 20260505085514 | 34 | 160 | 0.0 | 0.9 | 0.00 | 0.07 | 0.00 | 96 | 1006.9 |
| 20260505085012 | 35 | 160 | 0.0 | 0.9 | 0.00 | 0.07 | 0.00 | 95 | 1007.1 |
| 20260505084550 | 35 | 160 | 0.0 | 0.9 | 0.00 | 0.07 | 0.00 | 95 | 1007.0 |
| 20260505084011 | 35 | 160 | 0.0 | 0.9 | 0.00 | 0.07 | 0.00 | 96 | 1007.1 |
| 20260505083518 | 35 | 160 | 0.0 | 1.7 | 0.00 | 0.07 | 0.00 | 96 | 1007.2 |
| 20260505083058 | 35 | 160 | 0.0 | 1.7 | 0.00 | 0.07 | 0.00 | 95 | 1007.0 |
| 20260505082515 | 36 | 160 | 0.9 | 1.7 | 0.00 | 0.07 | 0.00 | 96 | 1007.2 |
| 20260505082016 | 36 | 160 | 0.0 | 0.9 | 0.00 | 0.07 | 0.00 | 96 | 1007.1 |
| 20260505081552 | 36 | 160 | 0.0 | 1.7 | 0.00 | 0.07 | 0.00 | 96 | 1007.2 |
| 20260505081018 | 36 | 160 | 0.0 | 0.9 | 0.00 | 0.07 | 0.00 | 96 | 1007.1 |
| 20260505080516 | 36 | 160 | 0.0 | 0.0 | 0.00 | 0.07 | 0.00 | 96 | 1007.2 |
| 20260505080048 | 36 | 160 | 0.0 | 0.0 | 0.00 | 0.07 | 0.00 | 96 | 1007.3 |
| 20260505075510 | 36 | 160 | 0.0 | 1.7 | 0.00 | 0.07 | 0.00 | 96 | 1007.3 |
| 20260505075014 | 36 | 160 | 0.0 | 1.7 | 0.00 | 0.07 | 0.00 | 96 | 1007.4 |
| 20260505074538 | 36 | 160 | 0.0 | 1.7 | 0.00 | 0.07 | 0.00 | 96 | 1007.3 |
| 20260505074014 | 36 | 160 | 0.0 | 0.9 | 0.00 | 0.07 | 0.00 | 96 | 1007.2 |
| 20260505073516 | 36 | 160 | 0.0 | 1.7 | 0.00 | 0.07 | 0.00 | 96 | 1007.3 |
| 20260505073044 | 36 | 160 | 0.0 | 2.6 | 0.00 | 0.07 | 0.00 | 96 | 1007.3 |
| 20260505072516 | 37 | 160 | 0.0 | 0.0 | 0.00 | 0.07 | 0.00 | 96 | 1007.4 |
| 20260505072016 | 37 | 160 | 0.0 | 0.0 | 0.00 | 0.07 | 0.00 | 96 | 1007.6 |
| 20260505071548 | 37 | 160 | 0.0 | 0.0 | 0.00 | 0.07 | 0.00 | 96 | 1007.5 |
| 20260505071019 | 37 | 160 | 0.0 | 0.0 | 0.00 | 0.07 | 0.00 | 96 | 1007.6 |
| 20260505070517 | 37 | 160 | 0.0 | 0.0 | 0.00 | 0.07 | 0.00 | 96 | 1007.5 |
| 20260505070044 | 37 | 160 | 0.0 | 0.0 | 0.00 | 0.07 | 0.00 | 96 | 1007.4 |
| 20260505065511 | 38 | 160 | 0.0 | 0.0 | 0.00 | 0.07 | 0.00 | 96 | 1007.4 |
| 20260505065015 | 38 | 160 | 0.0 | 0.0 | 0.00 | 0.07 | 0.00 | 96 | 1007.4 |
| 20260505064541 | 38 | 160 | 0.0 | 0.9 | 0.00 | 0.07 | 0.00 | 96 | 1007.5 |
| 20260505064014 | 38 | 160 | 0.0 | 0.9 | 0.00 | 0.07 | 0.00 | 96 | 1007.4 |
| 20260505063513 | 38 | 160 | 0.0 | 0.9 | 0.00 | 0.07 | 0.00 | 96 | 1007.3 |
| 20260505063027 | 38 | 160 | 0.0 | 0.0 | 0.00 | 0.07 | 0.00 | 96 | 1007.3 |
| 20260505062516 | 38 | 160 | 0.0 | 0.0 | 0.00 | 0.07 | 0.00 | 96 | 1007.3 |
| 20260505062014 | 38 | 160 | 0.0 | 0.0 | 0.00 | 0.07 | 0.00 | 96 | 1007.4 |
| 20260505061538 | 38 | 160 | 0.0 | 0.0 | 0.00 | 0.07 | 0.00 | 96 | 1007.4 |
| 20260505061013 | 38 | 160 | 0.0 | 0.0 | 0.00 | 0.07 | 0.00 | 95 | 1007.4 |
| 20260505060511 | 38 | 160 | 0.0 | 0.0 | 0.00 | 0.07 | 0.00 | 95 | 1007.5 |
| 20260505060048 | 38 | 160 | 0.0 | 0.0 | 0.00 | 0.07 | 0.00 | 96 | 1007.4 |
| 20260505055514 | 38 | 160 | 0.0 | 0.0 | 0.00 | 0.07 | 0.00 | 95 | 1007.5 |
| 20260505055016 | 38 | 160 | 0.0 | 0.9 | 0.00 | 0.07 | 0.00 | 96 | 1007.6 |
| 20260505054552 | 38 | 160 | 0.0 | 0.9 | 0.00 | 0.07 | 0.00 | 96 | 1007.7 |
| 20260505054015 | 38 | 160 | 0.0 | 0.0 | 0.00 | 0.07 | 0.00 | 96 | 1007.6 |
| 20260505053514 | 38 | 160 | 0.0 | 0.0 | 0.00 | 0.07 | 0.00 | 96 | 1007.5 |
| 20260505053039 | 38 | 160 | 0.0 | 0.0 | 0.00 | 0.07 | 0.00 | 95 | 1007.5 |
| 20260505052515 | 39 | 160 | 0.0 | 0.0 | 0.00 | 0.07 | 0.00 | 95 | 1007.5 |
| 20260505052018 | 39 | 160 | 0.0 | 0.0 | 0.00 | 0.07 | 0.00 | 95 | 1007.4 |
| 20260505051545 | 39 | 160 | 0.0 | 0.0 | 0.00 | 0.07 | 0.00 | 95 | 1007.4 |
| 20260505051015 | 39 | 160 | 0.0 | 0.0 | 0.00 | 0.07 | 0.00 | 95 | 1007.5 |
| 20260505050515 | 40 | 160 | 0.0 | 1.7 | 0.00 | 0.07 | 0.00 | 96 | 1007.4 |
| 20260505041549 | 41 | 160 | 0.0 | 6.1 | 0.00 | 0.07 | 0.00 | 95 | 1007.5 |
| 20260505041015 | 41 | 160 | 0.9 | 6.1 | 0.00 | 0.07 | 0.00 | 96 | 1007.7 |
| 20260505040513 | 41 | 176 | 0.9 | 4.3 | 0.00 | 0.07 | 0.00 | 96 | 1007.7 |
| 20260505040057 | 41 | 170 | 2.6 | 7.0 | 0.00 | 0.07 | 0.00 | 97 | 1007.6 |
| 20260505035517 | 41 | 172 | 3.5 | 7.0 | 0.00 | 0.07 | 0.07 | 97 | 1007.6 |
| 20260505035017 | 40 | 170 | 2.6 | 5.2 | 0.00 | 0.07 | 0.07 | 96 | 1007.4 |
| 20260505034539 | 40 | 169 | 0.0 | 2.6 | 0.00 | 0.07 | 0.07 | 96 | 1007.4 |
| 20260505034014 | 40 | 170 | 0.9 | 1.7 | 0.00 | 0.07 | 0.07 | 95 | 1007.2 |
| 20260505033518 | 40 | 170 | 0.9 | 3.5 | 0.00 | 0.07 | 0.07 | 96 | 1007.2 |
| 20260505033035 | 41 | 170 | 0.9 | 4.3 | 0.00 | 0.07 | 0.07 | 96 | 1007.2 |
| 20260505032515 | 41 | 166 | 1.7 | 3.5 | 0.00 | 0.07 | 0.07 | 96 | 1007.3 |
| 20260505032016 | 41 | 164 | 0.0 | 2.6 | 0.00 | 0.07 | 0.07 | 96 | 1007.2 |
| 20260505031558 | 41 | 164 | 0.0 | 3.5 | 0.00 | 0.07 | 0.07 | 96 | 1007.2 |
| 20260505031015 | 41 | 162 | 2.6 | 3.5 | 0.00 | 0.07 | 0.07 | 96 | 1007.1 |
| 20260505030514 | 41 | 338 | 0.0 | 0.0 | 0.00 | 0.07 | 0.07 | 96 | 1007.1 |
| 20260505030058 | 41 | 338 | 0.0 | 0.0 | 0.00 | 0.07 | 0.07 | 96 | 1007.1 |
| 20260505025517 | 41 | 338 | 0.0 | 0.0 | 0.00 | 0.07 | 0.07 | 96 | 1007.3 |
| 20260505025015 | 41 | 338 | 0.0 | 0.0 | 0.00 | 0.07 | 0.07 | 96 | 1007.2 |
| 20260505024543 | 41 | 338 | 0.0 | 1.7 | 0.00 | 0.07 | 0.07 | 96 | 1007.3 |
| 20260505024014 | 41 | 338 | 0.0 | 1.7 | 0.00 | 0.07 | 0.07 | 96 | 1007.4 |
| 20260505023518 | 41 | 338 | 0.0 | 1.7 | 0.00 | 0.07 | 0.07 | 95 | 1007.4 |
| 20260505023051 | 40 | 338 | 0.0 | 0.0 | 0.00 | 0.07 | 0.07 | 95 | 1007.5 |
| 20260505022516 | 40 | 338 | 0.0 | 0.9 | 0.00 | 0.07 | 0.07 | 95 | 1007.5 |
| 20260505022015 | 40 | 338 | 0.0 | 1.7 | 0.00 | 0.07 | 0.07 | 95 | 1007.7 |
| 20260505021552 | 40 | 338 | 0.9 | 1.7 | 0.00 | 0.07 | 0.07 | 94 | 1007.7 |
| 20260505021016 | 41 | 338 | 0.0 | 1.7 | 0.00 | 0.07 | 0.07 | 95 | 1007.8 |
| 20260505020514 | 41 | 338 | 0.0 | 3.5 | 0.00 | 0.07 | 0.07 | 94 | 1007.7 |
| 20260505020025 | 41 | 338 | 0.9 | 3.5 | 0.00 | 0.07 | 0.07 | 94 | 1007.7 |
| 20260505015519 | 41 | 338 | 0.0 | 0.0 | 0.00 | 0.07 | 0.07 | 94 | 1007.6 |
| 20260505015017 | 41 | 338 | 0.0 | 0.9 | 0.00 | 0.07 | 0.07 | 94 | 1007.5 |
| 20260505014603 | 41 | 338 | 0.0 | 0.9 | 0.00 | 0.07 | 0.07 | 94 | 1007.5 |
| 20260505014018 | 41 | 338 | 0.0 | 0.0 | 0.00 | 0.07 | 0.07 | 93 | 1007.6 |
| 20260505013515 | 42 | 338 | 0.0 | 0.0 | 0.00 | 0.07 | 0.07 | 93 | 1007.5 |
| 20260505013051 | 42 | 338 | 0.0 | 0.0 | 0.00 | 0.07 | 0.07 | 93 | 1007.5 |
| 20260505012516 | 42 | 338 | 0.0 | 0.0 | 0.00 | 0.07 | 0.07 | 93 | 1007.4 |
| 20260505012012 | 42 | 338 | 0.0 | 0.0 | 0.00 | 0.07 | 0.07 | 93 | 1007.4 |
| 20260505011608 | 43 | 338 | 0.0 | 0.0 | 0.00 | 0.07 | 0.07 | 93 | 1007.5 |
| 20260505011009 | 43 | 338 | 0.0 | 0.0 | 0.00 | 0.07 | 0.07 | 93 | 1007.4 |
| 20260505010515 | 43 | 338 | 0.0 | 0.0 | 0.00 | 0.07 | 0.07 | 93 | 1007.4 |
| 20260505010100 | 43 | 338 | 0.0 | 0.0 | 0.00 | 0.07 | 0.07 | 93 | 1007.3 |
| 20260505005516 | 44 | 338 | 0.0 | 0.0 | 0.00 | 0.07 | 0.07 | 93 | 1007.2 |
| 20260505005016 | 44 | 338 | 0.0 | 0.0 | 0.00 | 0.07 | 0.07 | 93 | 1007.2 |
| 20260505004556 | 44 | 338 | 0.0 | 0.0 | 0.00 | 0.07 | 0.07 | 93 | 1007.0 |
| 20260505004019 | 44 | 338 | 0.0 | 0.9 | 0.00 | 0.07 | 0.07 | 93 | 1007.0 |
| 20260505003515 | 45 | 338 | 0.0 | 1.7 | 0.00 | 0.07 | 0.07 | 93 | 1006.9 |
| 20260505003102 | 45 | 338 | 0.0 | 0.9 | 0.00 | 0.07 | 0.07 | 93 | 1006.9 |
| 20260505002517 | 45 | 338 | 0.0 | 1.7 | 0.00 | 0.07 | 0.07 | 93 | 1006.8 |
| 20260505002017 | 45 | 338 | 0.0 | 1.7 | 0.00 | 0.07 | 0.07 | 92 | 1006.8 |
| 20260505001553 | 46 | 338 | 0.0 | 1.7 | 0.00 | 0.07 | 0.07 | 92 | 1006.7 |
| 20260505001016 | 46 | 338 | 0.0 | 1.7 | 0.00 | 0.07 | 0.07 | 91 | 1006.8 |
| 20260505000514 | 46 | 338 | 0.0 | 0.9 | 0.00 | 0.07 | 0.07 | 90 | 1006.8 |
| 20260505000028 | 47 | 338 | 0.0 | 0.9 | 0.00 | 0.07 | 0.07 | 91 | 1006.7 |
| 20260504235509 | 47 | 338 | 0.0 | 0.0 | 0.00 | 0.07 | 0.07 | 90 | 1006.5 |
| 20260504235016 | 47 | 338 | 0.0 | 0.9 | 0.00 | 0.07 | 0.07 | 90 | 1006.4 |
| 20260504234551 | 48 | 338 | 0.0 | 0.9 | 0.00 | 0.07 | 0.07 | 90 | 1006.1 |
| 20260504234016 | 48 | 338 | 0.0 | 1.7 | 0.00 | 0.07 | 0.07 | 89 | 1006.0 |
| 20260504233516 | 48 | 338 | 0.0 | 1.7 | 0.00 | 0.07 | 0.07 | 88 | 1006.0 |
| 20260504233052 | 48 | 338 | 0.0 | 1.7 | 0.00 | 0.07 | 0.07 | 87 | 1005.9 |
| 20260504232516 | 48 | 338 | 0.0 | 1.7 | 0.00 | 0.07 | 0.07 | 88 | 1006.0 |
| 20260504232017 | 48 | 338 | 0.0 | 0.9 | 0.00 | 0.07 | 0.07 | 89 | 1005.9 |
| 20260504231557 | 49 | 338 | 0.0 | 0.9 | 0.00 | 0.07 | 0.07 | 88 | 1005.8 |
| 20260504231016 | 49 | 338 | 0.0 | 0.9 | 0.00 | 0.07 | 0.07 | 87 | 1005.7 |
| 20260504230518 | 49 | 338 | 0.0 | 3.5 | 0.00 | 0.07 | 0.07 | 86 | 1005.8 |
| 20260504225520 | 49 | 338 | 2.6 | 5.2 | 0.00 | 0.07 | 0.07 | 84 | 1005.6 |
| 20260504225017 | 49 | 337 | 2.6 | 4.3 | 0.00 | 0.07 | 0.07 | 84 | 1005.5 |
| 20260504224559 | 49 | 339 | 2.6 | 4.3 | 0.00 | 0.07 | 0.07 | 84 | 1005.5 |
| 20260504224016 | 49 | 345 | 0.0 | 5.2 | 0.00 | 0.07 | 0.07 | 85 | 1005.5 |
| 20260504223518 | 49 | 328 | 2.6 | 7.8 | 0.00 | 0.07 | 0.07 | 84 | 1005.6 |
| 20260504223053 | 49 | 348 | 0.9 | 7.8 | 0.00 | 0.07 | 0.07 | 84 | 1005.4 |
| 20260504222517 | 50 | 65 | 2.6 | 7.8 | 0.00 | 0.07 | 0.07 | 83 | 1005.3 |
| 20260504222010 | 49 | 321 | 3.5 | 7.0 | 0.00 | 0.07 | 0.07 | 85 | 1005.2 |
| 20260504221558 | 49 | 156 | 0.9 | 2.6 | 0.00 | 0.07 | 0.07 | 86 | 1005.2 |
| 20260504221016 | 49 | 326 | 1.7 | 2.6 | 0.00 | 0.07 | 0.07 | 86 | 1005.3 |
| 20260504220519 | 48 | 326 | 0.0 | 2.6 | 0.00 | 0.07 | 0.07 | 87 | 1005.3 |
| 20260504215515 | 48 | 351 | 0.0 | 0.9 | 0.00 | 0.07 | 0.07 | 90 | 1005.2 |
| 20260504215017 | 47 | 351 | 0.0 | 1.7 | 0.00 | 0.07 | 0.07 | 90 | 1005.2 |
| 20260504214623 | 47 | 351 | 0.0 | 1.7 | 0.00 | 0.07 | 0.07 | 90 | 1005.1 |
| 20260504214022 | 47 | 351 | 0.0 | 0.9 | 0.00 | 0.07 | 0.07 | 90 | 1005.1 |
| 20260504213522 | 47 | 351 | 0.0 | 0.9 | 0.00 | 0.07 | 0.07 | 90 | 1005.1 |
| 20260504213100 | 47 | 351 | 0.0 | 1.7 | 0.00 | 0.07 | 0.07 | 90 | 1005.1 |
| 20260504212519 | 47 | 351 | 0.0 | 3.5 | 0.00 | 0.07 | 0.07 | 89 | 1005.0 |
| 20260504212019 | 47 | 351 | 0.0 | 4.3 | 0.00 | 0.07 | 0.07 | 89 | 1005.0 |
| 20260504211556 | 47 | 334 | 2.6 | 4.3 | 0.00 | 0.07 | 0.07 | 89 | 1005.0 |
| 20260504211015 | 46 | 295 | 0.9 | 4.3 | 0.00 | 0.07 | 0.07 | 90 | 1004.9 |
| 20260504210514 | 46 | 307 | 0.9 | 3.5 | 0.00 | 0.07 | 0.07 | 90 | 1004.8 |
| 20260504210110 | 46 | 135 | 0.9 | 3.5 | 0.00 | 0.07 | 0.07 | 90 | 1004.9 |
| 20260504205517 | 46 | 339 | 0.9 | 4.3 | 0.00 | 0.07 | 0.07 | 90 | 1004.8 |
| 20260504205015 | 46 | 339 | 0.9 | 4.3 | 0.00 | 0.07 | 0.07 | 90 | 1004.7 |
| 20260504204630 | 46 | 345 | 1.7 | 4.3 | 0.00 | 0.07 | 0.07 | 91 | 1004.9 |
| 20260504204019 | 45 | 345 | 1.7 | 4.3 | 0.00 | 0.07 | 0.07 | 91 | 1004.9 |
| 20260504203518 | 45 | 352 | 1.7 | 5.2 | 0.00 | 0.07 | 0.07 | 91 | 1004.9 |
| 20260504203136 | 45 | 332 | 3.5 | 7.8 | 0.00 | 0.07 | 0.07 | 92 | 1004.9 |
| 20260504202517 | 45 | 357 | 2.6 | 7.8 | 0.00 | 0.07 | 0.07 | 92 | 1004.8 |
| 20260504202016 | 45 | 343 | 3.5 | 6.1 | 0.00 | 0.07 | 0.07 | 92 | 1004.9 |
| 20260504201557 | 45 | 351 | 3.5 | 6.1 | 0.00 | 0.07 | 0.07 | 91 | 1004.8 |
| 20260504201015 | 46 | 315 | 2.6 | 5.2 | 0.00 | 0.07 | 0.07 | 91 | 1004.8 |
| 20260504200518 | 45 | 295 | 1.7 | 5.2 | 0.00 | 0.07 | 0.07 | 91 | 1004.7 |
| 20260504200111 | 45 | 347 | 1.7 | 5.2 | 0.00 | 0.07 | 0.07 | 91 | 1004.7 |
| 20260504195518 | 45 | 274 | 0.9 | 5.2 | 0.00 | 0.09 | 0.07 | 91 | 1004.5 |
| 20260504195017 | 45 | 299 | 2.6 | 7.0 | 0.00 | 0.09 | 0.07 | 92 | 1004.6 |
| 20260504194610 | 45 | 339 | 2.6 | 7.0 | 0.00 | 0.09 | 0.07 | 91 | 1004.7 |
| 20260504194018 | 45 | 309 | 4.3 | 7.8 | 0.00 | 0.09 | 0.07 | 91 | 1004.7 |
| 20260504193519 | 45 | 331 | 2.6 | 5.2 | 0.00 | 0.09 | 0.07 | 91 | 1004.7 |
| 20260504193109 | 45 | 309 | 1.7 | 5.2 | 0.00 | 0.09 | 0.07 | 90 | 1004.6 |
| 20260504192520 | 45 | 295 | 2.6 | 7.0 | 0.00 | 0.09 | 0.07 | 90 | 1004.6 |
| 20260504192018 | 45 | 295 | 1.7 | 7.8 | 0.00 | 0.09 | 0.07 | 90 | 1004.7 |
| 20260504191614 | 45 | 295 | 3.5 | 7.8 | 0.00 | 0.09 | 0.07 | 90 | 1004.6 |
| 20260504191019 | 45 | 295 | 2.6 | 7.0 | 0.00 | 0.09 | 0.07 | 89 | 1004.5 |
| 20260504190517 | 45 | 313 | 1.7 | 4.3 | 0.00 | 0.09 | 0.07 | 89 | 1004.4 |
| 20260504190118 | 45 | 310 | 1.7 | 4.3 | 0.00 | 0.09 | 0.07 | 89 | 1004.5 |
| 20260504185517 | 45 | 282 | 1.7 | 4.3 | 0.00 | 0.09 | 0.07 | 89 | 1004.4 |
| 20260504185021 | 45 | 328 | 1.7 | 4.3 | 0.00 | 0.09 | 0.07 | 89 | 1004.4 |
| 20260504184614 | 45 | 326 | 2.6 | 5.2 | 0.00 | 0.09 | 0.07 | 89 | 1004.5 |
| 20260504184024 | 45 | 295 | 1.7 | 7.0 | 0.00 | 0.09 | 0.07 | 88 | 1004.5 |
| 20260504183517 | 45 | 307 | 3.5 | 7.0 | 0.00 | 0.09 | 0.07 | 88 | 1004.5 |
| 20260504183110 | 45 | 328 | 1.7 | 4.3 | 0.00 | 0.09 | 0.07 | 89 | 1004.4 |
| 20260504182519 | 45 | 304 | 1.7 | 4.3 | 0.00 | 0.09 | 0.07 | 88 | 1004.4 |
| 20260504182017 | 45 | 261 | 1.7 | 5.2 | 0.00 | 0.09 | 0.07 | 88 | 1004.5 |
| 20260504181610 | 45 | 259 | 2.6 | 9.6 | 0.00 | 0.09 | 0.07 | 87 | 1004.6 |
| 20260504181017 | 45 | 295 | 4.3 | 10.4 | 0.01 | 0.09 | 0.07 | 86 | 1004.5 |
| 20260504180518 | 46 | 312 | 5.2 | 10.4 | 0.01 | 0.09 | 0.07 | 88 | 1004.6 |
| 20260504180128 | 46 | 295 | 1.7 | 7.0 | 0.02 | 0.09 | 0.07 | 87 | 1004.5 |
| 20260504175518 | 45 | 312 | 1.7 | 5.2 | 0.02 | 0.11 | 0.07 | 88 | 1004.6 |
| 20260504175017 | 45 | 309 | 1.7 | 5.2 | 0.04 | 0.11 | 0.07 | 89 | 1004.8 |
| 20260504174602 | 45 | 333 | 2.6 | 5.2 | 0.06 | 0.11 | 0.07 | 87 | 1004.9 |
| 20260504174012 | 45 | 295 | 1.7 | 4.3 | 0.06 | 0.11 | 0.07 | 87 | 1005.0 |
| 20260504173518 | 45 | 239 | 2.6 | 7.0 | 0.06 | 0.11 | 0.07 | 88 | 1005.0 |
| 20260504173025 | 45 | 327 | 4.3 | 7.0 | 0.07 | 0.11 | 0.07 | 87 | 1004.9 |
| 20260504172515 | 46 | 258 | 1.7 | 8.7 | 0.07 | 0.11 | 0.07 | 88 | 1004.8 |
| 20260504172018 | 46 | 324 | 3.5 | 8.7 | 0.07 | 0.11 | 0.07 | 88 | 1004.9 |
| 20260504171612 | 46 | 338 | 4.3 | 8.7 | 0.07 | 0.11 | 0.07 | 87 | 1004.9 |
| 20260504171024 | 46 | 243 | 3.5 | 8.7 | 0.06 | 0.09 | 0.06 | 87 | 1004.8 |
| 20260504170519 | 46 | 318 | 2.6 | 8.7 | 0.06 | 0.09 | 0.06 | 87 | 1005.0 |
| 20260504160112 | 53 | 197 | 6.1 | 12.2 | 0.00 | 0.07 | 0.00 | 54 | 1003.4 |
| 20260504151019 | 52 | 206 | 2.6 | 7.0 | 0.00 | 0.09 | 0.00 | 59 | 1003.8 |
| 20260504150521 | 52 | 257 | 1.7 | 7.0 | 0.00 | 0.09 | 0.00 | 57 | 1003.8 |
| 20260504150113 | 51 | 199 | 2.6 | 7.0 | 0.00 | 0.09 | 0.00 | 57 | 1004.0 |